<?xml version="1.0" encoding="UTF-8" standalone="no" ?>
<gpx xmlns="http://www.topografix.com/GPX/1/1" xmlns:xsi="http://www.w3.org/2001/XMLSchema-instance" xsi:schemaLocation="http://www.topografix.com/GPX/1/1 http://www.topografix.com/GPX/1/1/gpx.xsd" version="1.1" creator="VisuGPX - https://www.visugpx.com">
  <metadata>
    <name>Boucle Arboretum St-Aubin</name>
    <desc><![CDATA[

]]></desc>
  </metadata>
  <trk>
    <name><![CDATA[Boucle Arboretum St-Aubin]]></name>
    <extensions>
      <line xmlns="http://www.topografix.com/GPX/gpx_style/0/2">
        <color>088104</color>
        <width>4</width>
      </line>
    </extensions>
    <trkseg>
      <trkpt lat="45.26304" lon="-0.55995">
        <ele>62.25</ele>
        <time>2021-06-19T09:57:29.000Z</time>
      </trkpt>
      <trkpt lat="45.26304" lon="-0.55995">
        <ele>62.25</ele>
        <time>2021-06-19T09:57:29.000Z</time>
      </trkpt>
      <trkpt lat="45.26304" lon="-0.55995">
        <ele>62.25</ele>
        <time>2021-06-19T09:57:29.000Z</time>
      </trkpt>
      <trkpt lat="45.26304" lon="-0.55995">
        <ele>62.25</ele>
        <time>2021-06-19T09:57:29.000Z</time>
      </trkpt>
      <trkpt lat="45.26304" lon="-0.55995">
        <ele>62.25</ele>
        <time>2021-06-19T09:57:29.000Z</time>
      </trkpt>
      <trkpt lat="45.26301" lon="-0.55981">
        <ele>62.24</ele>
        <time>2021-06-19T09:57:47.000Z</time>
      </trkpt>
      <trkpt lat="45.26294" lon="-0.55972">
        <ele>62.23</ele>
        <time>2021-06-19T09:57:49.000Z</time>
      </trkpt>
      <trkpt lat="45.26286" lon="-0.55964">
        <ele>61.37</ele>
        <time>2021-06-19T09:57:51.000Z</time>
      </trkpt>
      <trkpt lat="45.26277" lon="-0.55955">
        <ele>60.53</ele>
        <time>2021-06-19T09:57:53.000Z</time>
      </trkpt>
      <trkpt lat="45.26266" lon="-0.55952">
        <ele>59.69</ele>
        <time>2021-06-19T09:57:55.000Z</time>
      </trkpt>
      <trkpt lat="45.26255" lon="-0.5595">
        <ele>59.07</ele>
        <time>2021-06-19T09:57:57.000Z</time>
      </trkpt>
      <trkpt lat="45.26247" lon="-0.55939">
        <ele>59.34</ele>
        <time>2021-06-19T09:57:59.000Z</time>
      </trkpt>
      <trkpt lat="45.2624" lon="-0.55927">
        <ele>59.67</ele>
        <time>2021-06-19T09:58:01.000Z</time>
      </trkpt>
      <trkpt lat="45.26232" lon="-0.55913">
        <ele>59.15</ele>
        <time>2021-06-19T09:58:03.000Z</time>
      </trkpt>
      <trkpt lat="45.26225" lon="-0.55898">
        <ele>59.42</ele>
        <time>2021-06-19T09:58:05.000Z</time>
      </trkpt>
      <trkpt lat="45.26217" lon="-0.55883">
        <ele>58.92</ele>
        <time>2021-06-19T09:58:07.000Z</time>
      </trkpt>
      <trkpt lat="45.26209" lon="-0.5587">
        <ele>57.47</ele>
        <time>2021-06-19T09:58:09.000Z</time>
      </trkpt>
      <trkpt lat="45.26199" lon="-0.55859">
        <ele>57.15</ele>
        <time>2021-06-19T09:58:11.000Z</time>
      </trkpt>
      <trkpt lat="45.26187" lon="-0.55851">
        <ele>57.36</ele>
        <time>2021-06-19T09:58:13.000Z</time>
      </trkpt>
      <trkpt lat="45.26176" lon="-0.55845">
        <ele>57.84</ele>
        <time>2021-06-19T09:58:15.000Z</time>
      </trkpt>
      <trkpt lat="45.26158" lon="-0.55837">
        <ele>58.21</ele>
        <time>2021-06-19T09:58:18.000Z</time>
      </trkpt>
      <trkpt lat="45.26146" lon="-0.55831">
        <ele>58.03</ele>
        <time>2021-06-19T09:58:20.000Z</time>
      </trkpt>
      <trkpt lat="45.26134" lon="-0.55825">
        <ele>58.15</ele>
        <time>2021-06-19T09:58:22.000Z</time>
      </trkpt>
      <trkpt lat="45.26122" lon="-0.55819">
        <ele>59.61</ele>
        <time>2021-06-19T09:58:24.000Z</time>
      </trkpt>
      <trkpt lat="45.26104" lon="-0.5581">
        <ele>59.51</ele>
        <time>2021-06-19T09:58:27.000Z</time>
      </trkpt>
      <trkpt lat="45.26093" lon="-0.55805">
        <ele>59.58</ele>
        <time>2021-06-19T09:58:29.000Z</time>
      </trkpt>
      <trkpt lat="45.26081" lon="-0.55798">
        <ele>60.08</ele>
        <time>2021-06-19T09:58:31.000Z</time>
      </trkpt>
      <trkpt lat="45.26069" lon="-0.55793">
        <ele>59.88</ele>
        <time>2021-06-19T09:58:33.000Z</time>
      </trkpt>
      <trkpt lat="45.26057" lon="-0.55787">
        <ele>60.1</ele>
        <time>2021-06-19T09:58:35.000Z</time>
      </trkpt>
      <trkpt lat="45.26047" lon="-0.55782">
        <ele>59.95</ele>
        <time>2021-06-19T09:58:37.000Z</time>
      </trkpt>
      <trkpt lat="45.26037" lon="-0.55774">
        <ele>58.98</ele>
        <time>2021-06-19T09:58:39.000Z</time>
      </trkpt>
      <trkpt lat="45.26027" lon="-0.55768">
        <ele>57.68</ele>
        <time>2021-06-19T09:58:41.000Z</time>
      </trkpt>
      <trkpt lat="45.26018" lon="-0.55759">
        <ele>56.89</ele>
        <time>2021-06-19T09:58:43.000Z</time>
      </trkpt>
      <trkpt lat="45.26005" lon="-0.5574">
        <ele>57.67</ele>
        <time>2021-06-19T09:58:46.000Z</time>
      </trkpt>
      <trkpt lat="45.25997" lon="-0.55729">
        <ele>58.49</ele>
        <time>2021-06-19T09:58:48.000Z</time>
      </trkpt>
      <trkpt lat="45.25987" lon="-0.55719">
        <ele>58.42</ele>
        <time>2021-06-19T09:58:50.000Z</time>
      </trkpt>
      <trkpt lat="45.25978" lon="-0.5571">
        <ele>59</ele>
        <time>2021-06-19T09:58:52.000Z</time>
      </trkpt>
      <trkpt lat="45.25969" lon="-0.557">
        <ele>59.64</ele>
        <time>2021-06-19T09:58:54.000Z</time>
      </trkpt>
      <trkpt lat="45.25959" lon="-0.55689">
        <ele>60.46</ele>
        <time>2021-06-19T09:58:56.000Z</time>
      </trkpt>
      <trkpt lat="45.25949" lon="-0.5568">
        <ele>60.7</ele>
        <time>2021-06-19T09:58:58.000Z</time>
      </trkpt>
      <trkpt lat="45.25935" lon="-0.55666">
        <ele>59.87</ele>
        <time>2021-06-19T09:59:01.000Z</time>
      </trkpt>
      <trkpt lat="45.25925" lon="-0.55657">
        <ele>60.65</ele>
        <time>2021-06-19T09:59:03.000Z</time>
      </trkpt>
      <trkpt lat="45.25917" lon="-0.55648">
        <ele>60.49</ele>
        <time>2021-06-19T09:59:05.000Z</time>
      </trkpt>
      <trkpt lat="45.25908" lon="-0.55638">
        <ele>59.92</ele>
        <time>2021-06-19T09:59:07.000Z</time>
      </trkpt>
      <trkpt lat="45.25898" lon="-0.55627">
        <ele>59.62</ele>
        <time>2021-06-19T09:59:09.000Z</time>
      </trkpt>
      <trkpt lat="45.25889" lon="-0.55618">
        <ele>59.29</ele>
        <time>2021-06-19T09:59:11.000Z</time>
      </trkpt>
      <trkpt lat="45.25879" lon="-0.5561">
        <ele>58.18</ele>
        <time>2021-06-19T09:59:13.000Z</time>
      </trkpt>
      <trkpt lat="45.25869" lon="-0.556">
        <ele>58.19</ele>
        <time>2021-06-19T09:59:15.000Z</time>
      </trkpt>
      <trkpt lat="45.2586" lon="-0.55589">
        <ele>58.51</ele>
        <time>2021-06-19T09:59:17.000Z</time>
      </trkpt>
      <trkpt lat="45.2585" lon="-0.5558">
        <ele>59.59</ele>
        <time>2021-06-19T09:59:19.000Z</time>
      </trkpt>
      <trkpt lat="45.25826" lon="-0.55592">
        <ele>15.8</ele>
        <time>2021-06-19T09:59:22.000Z</time>
      </trkpt>
      <trkpt lat="45.25832" lon="-0.55566">
        <ele>16.4</ele>
        <time>2021-06-19T09:59:25.000Z</time>
      </trkpt>
      <trkpt lat="45.25857" lon="-0.55544">
        <ele>17.5</ele>
        <time>2021-06-19T09:59:28.000Z</time>
      </trkpt>
      <trkpt lat="45.25872" lon="-0.5554">
        <ele>59.45</ele>
        <time>2021-06-19T09:59:31.000Z</time>
      </trkpt>
      <trkpt lat="45.25882" lon="-0.55529">
        <ele>59.86</ele>
        <time>2021-06-19T09:59:34.000Z</time>
      </trkpt>
      <trkpt lat="45.2589" lon="-0.55521">
        <ele>60.22</ele>
        <time>2021-06-19T09:59:36.000Z</time>
      </trkpt>
      <trkpt lat="45.25897" lon="-0.55512">
        <ele>59.42</ele>
        <time>2021-06-19T09:59:38.000Z</time>
      </trkpt>
      <trkpt lat="45.25906" lon="-0.55503">
        <ele>60.29</ele>
        <time>2021-06-19T09:59:40.000Z</time>
      </trkpt>
      <trkpt lat="45.25914" lon="-0.55495">
        <ele>58.43</ele>
        <time>2021-06-19T09:59:42.000Z</time>
      </trkpt>
      <trkpt lat="45.25922" lon="-0.55486">
        <ele>57.79</ele>
        <time>2021-06-19T09:59:44.000Z</time>
      </trkpt>
      <trkpt lat="45.2593" lon="-0.55476">
        <ele>56.4</ele>
        <time>2021-06-19T09:59:46.000Z</time>
      </trkpt>
      <trkpt lat="45.25939" lon="-0.55467">
        <ele>56.41</ele>
        <time>2021-06-19T09:59:48.000Z</time>
      </trkpt>
      <trkpt lat="45.25948" lon="-0.55457">
        <ele>56.83</ele>
        <time>2021-06-19T09:59:50.000Z</time>
      </trkpt>
      <trkpt lat="45.25957" lon="-0.55448">
        <ele>57.16</ele>
        <time>2021-06-19T09:59:52.000Z</time>
      </trkpt>
      <trkpt lat="45.25962" lon="-0.55462">
        <ele>59.24</ele>
        <time>2021-06-19T10:02:51.000Z</time>
      </trkpt>
      <trkpt lat="45.25972" lon="-0.5546">
        <ele>60.53</ele>
        <time>2021-06-19T10:02:55.000Z</time>
      </trkpt>
      <trkpt lat="45.25982" lon="-0.55459">
        <ele>61.18</ele>
        <time>2021-06-19T10:03:00.000Z</time>
      </trkpt>
      <trkpt lat="45.25993" lon="-0.55459">
        <ele>60.64</ele>
        <time>2021-06-19T10:03:04.000Z</time>
      </trkpt>
      <trkpt lat="45.26002" lon="-0.55459">
        <ele>59.55</ele>
        <time>2021-06-19T10:03:07.000Z</time>
      </trkpt>
      <trkpt lat="45.26013" lon="-0.55461">
        <ele>59.93</ele>
        <time>2021-06-19T10:03:10.000Z</time>
      </trkpt>
      <trkpt lat="45.26022" lon="-0.5547">
        <ele>59.57</ele>
        <time>2021-06-19T10:03:13.000Z</time>
      </trkpt>
      <trkpt lat="45.26029" lon="-0.55479">
        <ele>59.62</ele>
        <time>2021-06-19T10:03:16.000Z</time>
      </trkpt>
      <trkpt lat="45.26037" lon="-0.55488">
        <ele>58.46</ele>
        <time>2021-06-19T10:03:19.000Z</time>
      </trkpt>
      <trkpt lat="45.26044" lon="-0.55498">
        <ele>60.35</ele>
        <time>2021-06-19T10:03:22.000Z</time>
      </trkpt>
      <trkpt lat="45.26053" lon="-0.55506">
        <ele>61.13</ele>
        <time>2021-06-19T10:03:25.000Z</time>
      </trkpt>
      <trkpt lat="45.26061" lon="-0.55515">
        <ele>61.35</ele>
        <time>2021-06-19T10:03:28.000Z</time>
      </trkpt>
      <trkpt lat="45.26069" lon="-0.55521">
        <ele>62</ele>
        <time>2021-06-19T10:03:31.000Z</time>
      </trkpt>
      <trkpt lat="45.26079" lon="-0.55529">
        <ele>61.97</ele>
        <time>2021-06-19T10:03:35.000Z</time>
      </trkpt>
      <trkpt lat="45.26085" lon="-0.55538">
        <ele>61.36</ele>
        <time>2021-06-19T10:03:38.000Z</time>
      </trkpt>
      <trkpt lat="45.26093" lon="-0.55549">
        <ele>61.48</ele>
        <time>2021-06-19T10:03:41.000Z</time>
      </trkpt>
      <trkpt lat="45.26101" lon="-0.55558">
        <ele>62.08</ele>
        <time>2021-06-19T10:03:45.000Z</time>
      </trkpt>
      <trkpt lat="45.26105" lon="-0.55573">
        <ele>61.83</ele>
        <time>2021-06-19T10:03:49.000Z</time>
      </trkpt>
      <trkpt lat="45.26103" lon="-0.55587">
        <ele>60.35</ele>
        <time>2021-06-19T10:03:52.000Z</time>
      </trkpt>
      <trkpt lat="45.26095" lon="-0.55598">
        <ele>59.83</ele>
        <time>2021-06-19T10:03:56.000Z</time>
      </trkpt>
      <trkpt lat="45.26086" lon="-0.5561">
        <ele>58.37</ele>
        <time>2021-06-19T10:04:00.000Z</time>
      </trkpt>
      <trkpt lat="45.26081" lon="-0.55623">
        <ele>60.03</ele>
        <time>2021-06-19T10:04:03.000Z</time>
      </trkpt>
      <trkpt lat="45.26079" lon="-0.55635">
        <ele>59.92</ele>
        <time>2021-06-19T10:04:06.000Z</time>
      </trkpt>
      <trkpt lat="45.26077" lon="-0.55651">
        <ele>59.46</ele>
        <time>2021-06-19T10:04:09.000Z</time>
      </trkpt>
      <trkpt lat="45.26077" lon="-0.55664">
        <ele>58.65</ele>
        <time>2021-06-19T10:04:11.000Z</time>
      </trkpt>
      <trkpt lat="45.26072" lon="-0.5568">
        <ele>58.51</ele>
        <time>2021-06-19T10:04:14.000Z</time>
      </trkpt>
      <trkpt lat="45.26065" lon="-0.55695">
        <ele>59.44</ele>
        <time>2021-06-19T10:04:17.000Z</time>
      </trkpt>
      <trkpt lat="45.2606" lon="-0.55708">
        <ele>58.54</ele>
        <time>2021-06-19T10:04:20.000Z</time>
      </trkpt>
      <trkpt lat="45.26055" lon="-0.55722">
        <ele>58.26</ele>
        <time>2021-06-19T10:04:23.000Z</time>
      </trkpt>
      <trkpt lat="45.26052" lon="-0.55738">
        <ele>58.13</ele>
        <time>2021-06-19T10:04:26.000Z</time>
      </trkpt>
      <trkpt lat="45.26049" lon="-0.55755">
        <ele>57.82</ele>
        <time>2021-06-19T10:04:29.000Z</time>
      </trkpt>
      <trkpt lat="45.26049" lon="-0.55769">
        <ele>57.36</ele>
        <time>2021-06-19T10:04:32.000Z</time>
      </trkpt>
      <trkpt lat="45.26051" lon="-0.55782">
        <ele>57.69</ele>
        <time>2021-06-19T10:04:36.000Z</time>
      </trkpt>
      <trkpt lat="45.26058" lon="-0.55791">
        <ele>57.28</ele>
        <time>2021-06-19T10:04:45.000Z</time>
      </trkpt>
      <trkpt lat="45.26101" lon="-0.55814">
        <ele>9.6</ele>
      </trkpt>
      <trkpt lat="45.2619" lon="-0.5585">
        <ele>11</ele>
      </trkpt>
      <trkpt lat="45.26215" lon="-0.55879">
        <ele>12</ele>
      </trkpt>
      <trkpt lat="45.26239" lon="-0.55928">
        <ele>13</ele>
      </trkpt>
      <trkpt lat="45.26255" lon="-0.55953">
        <ele>14.1</ele>
      </trkpt>
      <trkpt lat="45.26268" lon="-0.55952">
        <ele>14.7</ele>
      </trkpt>
      <trkpt lat="45.26273" lon="-0.55954">
        <ele>15</ele>
      </trkpt>
      <trkpt lat="45.26292" lon="-0.55974">
        <ele>16.4</ele>
      </trkpt>
      <trkpt lat="45.26297" lon="-0.55979">
        <ele>16.8</ele>
      </trkpt>
    </trkseg>
  </trk>
</gpx>